TimeMST,TemperatureF,Dew PointF,Humidity,Sea Level PressureIn,VisibilityMPH,Wind Direction,Wind SpeedMPH,Gust SpeedMPH,PrecipitationIn,Events,Conditions,WindDirDegrees,DateUTC
12:53 AM,7.0,1.9,80,30.23,10.0,East,3.5,-,N/A,,Mostly Cloudy,100,2013-12-07 07:53:00
1:53 AM,8.1,3.0,80,30.20,10.0,SSE,3.5,-,N/A,,Overcast,160,2013-12-07 08:53:00
2:53 AM,10.0,5.0,80,30.18,10.0,SSE,6.9,-,N/A,,Overcast,160,2013-12-07 09:53:00
3:53 AM,12.0,6.1,77,30.14,10.0,Variable,4.6,-,N/A,,Overcast,0,2013-12-07 10:53:00
4:53 AM,14.0,8.1,77,30.11,10.0,Calm,Calm,-,N/A,,Overcast,0,2013-12-07 11:53:00
5:53 AM,12.9,8.1,81,30.11,10.0,Calm,Calm,-,N/A,,Overcast,0,2013-12-07 12:53:00
6:53 AM,14.0,9.0,80,30.08,10.0,Calm,Calm,-,N/A,,Overcast,0,2013-12-07 13:53:00
7:53 AM,12.0,8.1,84,30.08,10.0,WNW,3.5,-,N/A,,Overcast,300,2013-12-07 14:53:00
8:53 AM,14.0,9.0,80,30.07,10.0,South,3.5,-,N/A,,Overcast,190,2013-12-07 15:53:00
9:53 AM,17.1,10.0,74,30.04,10.0,SSW,5.8,-,N/A,,Overcast,210,2013-12-07 16:53:00
10:53 AM,19.9,10.9,68,29.99,10.0,Calm,Calm,-,N/A,,Overcast,0,2013-12-07 17:53:00
11:53 AM,21.9,10.9,63,29.93,10.0,NE,3.5,-,N/A,,Overcast,50,2013-12-07 18:53:00
12:53 PM,24.1,15.1,69,29.88,7.0,Calm,Calm,-,0.00,Snow,Light Snow,0,2013-12-07 19:53:00
1:53 PM,27.0,19.0,72,29.82,7.0,NE,4.6,-,0.00,Snow,Light Snow,50,2013-12-07 20:53:00
2:28 PM,26.1,19.0,75,29.71,2.5,East,3.5,-,0.00,Snow,Light Snow,90,2013-12-07 21:28:00
2:38 PM,26.1,19.9,78,29.71,1.8,NE,4.6,-,0.00,Snow,Light Snow,50,2013-12-07 21:38:00
2:41 PM,26.1,19.9,78,29.71,2.0,NNE,4.6,-,0.00,Snow,Light Snow,30,2013-12-07 21:41:00
2:51 PM,26.6,19.4,74,29.71,5.0,NNE,5.8,-,0.00,Snow,Light Snow,30,2013-12-07 21:51:00
2:53 PM,26.1,19.9,78,29.80,7.0,NE,6.9,-,0.00,Snow,Light Snow,40,2013-12-07 21:53:00
3:20 PM,26.1,19.9,78,29.70,2.0,East,3.5,-,0.00,Snow,Light Snow,90,2013-12-07 22:20:00
3:27 PM,26.1,19.9,78,29.70,4.0,East,6.9,-,0.00,Snow,Light Snow,90,2013-12-07 22:27:00
3:53 PM,26.1,19.0,75,29.79,9.0,ESE,6.9,-,0.00,,Overcast,110,2013-12-07 22:53:00
4:53 PM,25.0,19.9,81,29.78,8.0,SE,8.1,-,N/A,,Overcast,140,2013-12-07 23:53:00
5:53 PM,25.0,18.0,75,29.78,10.0,East,6.9,-,N/A,,Overcast,100,2013-12-08 00:53:00
6:53 PM,25.0,19.9,81,29.75,10.0,Variable,3.5,-,N/A,,Overcast,0,2013-12-08 01:53:00
7:37 PM,23.0,19.9,88,29.68,4.0,Calm,Calm,-,0.00,Snow,Light Snow,0,2013-12-08 02:37:00
7:53 PM,23.0,21.0,92,29.76,3.0,WNW,5.8,-,0.00,Snow,Light Snow,290,2013-12-08 02:53:00
8:04 PM,23.0,21.0,92,29.67,2.5,WNW,4.6,-,0.00,Snow,Light Snow,290,2013-12-08 03:04:00
8:13 PM,23.0,21.0,92,29.67,4.0,WNW,6.9,-,0.00,Snow,Light Snow,300,2013-12-08 03:13:00
8:53 PM,21.9,19.9,92,29.75,4.0,WNW,4.6,-,0.00,Snow,Light Snow,300,2013-12-08 03:53:00
9:21 PM,23.0,21.0,92,29.65,2.0,Calm,Calm,-,0.00,Snow,Light Snow,0,2013-12-08 04:21:00
9:32 PM,21.9,19.9,92,29.66,4.0,Calm,Calm,-,0.00,Snow,Light Snow,0,2013-12-08 04:32:00
9:53 PM,21.9,19.9,92,29.73,2.5,ESE,3.5,-,0.00,Snow,Light Snow,120,2013-12-08 04:53:00
10:18 PM,19.9,19.0,96,29.66,3.0,Calm,Calm,-,0.00,Snow,Light Snow,0,2013-12-08 05:18:00
10:53 PM,21.0,19.0,92,29.71,10.0,SSE,5.8,-,0.00,,Clear,160,2013-12-08 05:53:00
11:23 PM,23.0,19.9,88,29.64,2.5,South,6.9,-,0.00,Snow,Light Snow,190,2013-12-08 06:23:00
11:26 PM,25.0,21.0,85,29.64,1.5,SSW,9.2,-,0.00,Snow,Light Snow,210,2013-12-08 06:26:00
11:30 PM,26.1,23.0,88,29.64,0.8,SW,12.7,-,0.00,Snow,Light Snow,230,2013-12-08 06:30:00
11:43 PM,26.1,24.1,92,29.63,0.5,West,4.6,-,0.01,Fog-Snow,Snow,280,2013-12-08 06:43:00
11:53 PM,25.0,24.1,96,29.68,0.8,WSW,3.5,-,0.02,Snow,Light Snow,250,2013-12-08 06:53:00
11:56 PM,25.0,24.1,96,29.64,1.2,WSW,4.6,-,0.00,Snow,Light Snow,250,2013-12-08 06:56:00